TimeMDT,TemperatureF,Dew PointF,Humidity,Sea Level PressureIn,VisibilityMPH,Wind Direction,Wind SpeedMPH,Gust SpeedMPH,PrecipitationIn,Events,Conditions,WindDirDegrees,DateUTC
12:53 AM,62.1,50.0,65,30.10,10.0,SSW,4.6,-,N/A,,Clear,200,2013-07-10 06:53:00
1:53 AM,63.0,51.1,65,30.09,10.0,SSE,9.2,-,N/A,,Scattered Clouds,160,2013-07-10 07:53:00
2:53 AM,62.1,51.1,67,30.06,10.0,SSE,12.7,-,N/A,,Clear,160,2013-07-10 08:53:00
3:53 AM,63.0,51.1,65,30.03,10.0,South,15.0,-,N/A,,Clear,170,2013-07-10 09:53:00
4:53 AM,66.0,51.1,59,30.01,10.0,SSE,17.3,-,N/A,,Clear,150,2013-07-10 10:53:00
5:53 AM,64.9,51.1,61,30.01,10.0,South,9.2,-,N/A,,Clear,170,2013-07-10 11:53:00
6:53 AM,66.9,52.0,59,30.01,10.0,SE,9.2,-,N/A,,Clear,130,2013-07-10 12:53:00
7:53 AM,71.1,53.1,53,30.00,10.0,SSE,6.9,-,N/A,,Clear,160,2013-07-10 13:53:00
8:53 AM,75.9,51.1,42,30.00,10.0,SSE,3.5,-,N/A,,Clear,150,2013-07-10 14:53:00
9:53 AM,80.1,48.0,32,29.99,10.0,Variable,3.5,-,N/A,,Clear,0,2013-07-10 15:53:00
10:53 AM,82.9,46.0,27,29.98,10.0,ENE,4.6,-,N/A,,Clear,70,2013-07-10 16:53:00
11:53 AM,86.0,48.0,27,29.97,10.0,North,11.5,-,N/A,,Clear,10,2013-07-10 17:53:00
12:53 PM,86.0,48.9,28,29.96,10.0,North,12.7,19.6,N/A,,Clear,350,2013-07-10 18:53:00
1:53 PM,89.1,48.0,24,29.94,10.0,North,13.8,18.4,N/A,,Clear,10,2013-07-10 19:53:00
2:53 PM,89.1,48.9,25,29.93,10.0,NNW,9.2,19.6,N/A,,Clear,340,2013-07-10 20:53:00
3:53 PM,88.0,46.9,24,29.92,10.0,NNW,13.8,19.6,N/A,,Clear,340,2013-07-10 21:53:00
4:53 PM,89.1,48.0,24,29.90,10.0,NNW,12.7,-,N/A,,Clear,340,2013-07-10 22:53:00
5:53 PM,89.1,48.0,24,29.90,10.0,NNW,12.7,19.6,N/A,,Clear,340,2013-07-10 23:53:00
6:53 PM,87.1,46.0,24,29.90,10.0,North,8.1,-,N/A,,Clear,10,2013-07-11 00:53:00
7:53 PM,84.0,46.9,27,29.89,10.0,North,4.6,-,N/A,,Clear,350,2013-07-11 01:53:00
8:53 PM,75.9,48.9,38,29.90,10.0,WNW,3.5,-,N/A,,Clear,300,2013-07-11 02:53:00
9:53 PM,73.0,48.9,42,29.91,10.0,WSW,8.1,-,N/A,,Clear,250,2013-07-11 03:53:00
10:53 PM,72.0,48.0,43,29.91,10.0,WSW,8.1,-,N/A,,Clear,250,2013-07-11 04:53:00
11:53 PM,70.0,46.9,44,29.91,10.0,WSW,5.8,-,N/A,,Clear,240,2013-07-11 05:53:00